This is the latest recevied weather packets stored in our database for station/object DH0DM-13. If no packets are shown the sender has not sent any weather packets the latest 10 day(s).
| Time | Temp. | Humidity | Pressure | Rain* | Wind** | Luminosity | Snow |
|---|---|---|---|---|---|---|---|
| 1788091133 | 23.89° C | 53% | 986.7 hPa | 0 mm | 0.89 m/s, 206° | - | - |
| 1788090532 | 23.89° C | 53% | 986.8 hPa | 0 mm | 4.92 m/s, 236° | - | - |
| 1788089931 | 23.33° C | 52% | 986.9 hPa | 0 mm | 13.86 m/s, 256° | - | - |
| 1788089330 | 23.89° C | 52% | 986.8 hPa | 0 mm | 4.92 m/s, 244° | - | - |
| 1788088729 | 23.89° C | 50% | 986.9 hPa | 0 mm | 6.26 m/s, 284° | - | - |
| 1788088128 | 24.44° C | 49% | 986.9 hPa | 0 mm | 11.18 m/s, 236° | - | - |
| 1788087527 | 25.56° C | 49% | 986.6 hPa | 0 mm | 8.49 m/s, 210° | - | - |
| 1788086926 | 25° C | 48% | 986.8 hPa | 0 mm | 10.73 m/s, 159° | - | - |
| 1788086325 | 25.56° C | 47% | 986.3 hPa | 0 mm | 9.83 m/s, 219° | - | - |
| 1788085724 | 25.56° C | 48% | 986.7 hPa | 0 mm | 7.6 m/s, 231° | - | - |
| 1788085123 | 25° C | 47% | 986.6 hPa | 0 mm | 17.43 m/s, 239° | - | - |
| 1788084522 | 25.56° C | 49% | 986.6 hPa | 0 mm | 6.26 m/s, 224° | - | - |
| 1788083921 | 24.44° C | 50% | 986.4 hPa | 0 mm | 11.18 m/s, 230° | - | - |
| 1788083320 | 25° C | 51% | 986.9 hPa | 0 mm | 11.62 m/s, 250° | - | - |
| 1788082720 | 24.44° C | 52% | 986.5 hPa | 0 mm | 8.49 m/s, 236° | - | - |
| 1788082119 | 25° C | 52% | 986.7 hPa | 0 mm | 12.07 m/s, 235° | - | - |
| 1788081518 | 25° C | 53% | 986.7 hPa | 0 mm | 4.02 m/s, 233° | - | - |
| 1788080917 | 23.89° C | 54% | 986.8 hPa | 0 mm | 6.26 m/s, 251° | - | - |
| 1788080316 | 23.89° C | 54% | 986.7 hPa | 0 mm | 9.83 m/s, 244° | - | - |
| 1788079715 | 23.89° C | 54% | 986.8 hPa | 0 mm | 16.54 m/s, 157° | - | - |
| 1788079114 | 23.89° C | 55% | 986.6 hPa | 0 mm | 7.15 m/s, 234° | - | - |
| 1788078513 | 23.33° C | 55% | 986.4 hPa | 0 mm | 10.28 m/s, 246° | - | - |
| 1788077912 | 23.33° C | 57% | 986.6 hPa | 0 mm | 4.92 m/s, 240° | - | - |
| 1788077312 | 23.33° C | 58% | 986.7 hPa | 0 mm | 7.15 m/s, 241° | - | - |
| 1788076711 | 23.33° C | 57% | 986.7 hPa | 0 mm | 12.07 m/s, 206° | - | - |
* Rain since midnight (hover to see other rain measurements)
** Current wind speed in m/s (hover to see current wind gust speed)